Location: *
(58.7167°N, 26.1833°E)
Time: 01:32:36
(UTC+00:00)

ATLAS 2AS CENTAUR R/B - Pass Details

Date: 25 August 2019
Orbit: 927 x 1285 km, 63.7° (Epoch: 14 September)

Event Time Altitude Azimuth Distance (km) Brightness Sun altitude
Rises 21:49:35 0° 304° (NW) 4,255 6.4 -20.4°
Reaches altitude 10° 21:52:27 10° 303° (WNW) 3,265 5.7 -20.5°
Maximum altitude 22:00:22 76° 220° (SW) 1,256 2.9 -20.6°
Enters shadow 22:05:01 25° 139° (SE) 2,157 3.8 -20.6°
